TimeCST,TemperatureF,Dew PointF,Humidity,Sea Level PressureIn,VisibilityMPH,Wind Direction,Wind SpeedMPH,Gust SpeedMPH,PrecipitationIn,Events,Conditions,WindDirDegrees,DateUTC
12:52 AM,30.0,19.0,64,30.27,10.0,North,15.0,-,N/A,,Clear,360,2014-02-25 06:52:00
1:52 AM,27.0,17.1,66,30.30,10.0,North,13.8,-,N/A,,Clear,10,2014-02-25 07:52:00
2:52 AM,25.0,16.0,69,30.28,10.0,NNE,8.1,-,N/A,,Clear,20,2014-02-25 08:52:00
3:52 AM,25.0,17.1,72,30.29,10.0,North,11.5,-,N/A,,Clear,360,2014-02-25 09:52:00
4:52 AM,23.0,16.0,74,30.31,10.0,North,13.8,-,N/A,,Clear,10,2014-02-25 10:52:00
5:32 AM,21.0,15.1,78,30.28,10.0,North,15.0,-,N/A,,Mostly Cloudy,10,2014-02-25 11:32:00
5:52 AM,19.9,14.0,78,30.31,10.0,North,15.0,-,N/A,,Scattered Clouds,360,2014-02-25 11:52:00
6:24 AM,18.0,12.0,78,30.28,10.0,North,16.1,-,N/A,,Mostly Cloudy,360,2014-02-25 12:24:00
6:52 AM,18.0,12.0,78,30.31,10.0,North,12.7,-,N/A,,Overcast,360,2014-02-25 12:52:00
7:52 AM,19.0,12.9,77,30.34,10.0,North,10.4,-,N/A,,Overcast,10,2014-02-25 13:52:00
8:52 AM,19.9,14.0,78,30.36,9.0,NNE,9.2,18.4,N/A,,Overcast,20,2014-02-25 14:52:00
9:52 AM,19.9,14.0,78,30.37,10.0,North,12.7,-,N/A,,Overcast,10,2014-02-25 15:52:00
10:52 AM,21.0,15.1,78,30.37,9.0,North,13.8,-,N/A,,Overcast,10,2014-02-25 16:52:00
11:52 AM,21.0,14.0,74,30.38,9.0,NNE,13.8,-,N/A,,Overcast,20,2014-02-25 17:52:00
12:52 PM,21.0,15.1,78,30.37,9.0,NNE,13.8,21.9,N/A,,Overcast,20,2014-02-25 18:52:00
1:22 PM,21.0,15.1,78,30.32,8.0,NNE,11.5,-,N/A,,Overcast,20,2014-02-25 19:22:00
1:52 PM,21.0,15.1,78,30.35,7.0,NNE,12.7,18.4,N/A,,Overcast,20,2014-02-25 19:52:00
2:23 PM,21.0,14.0,74,30.30,7.0,NNE,11.5,-,N/A,,Overcast,30,2014-02-25 20:23:00
2:52 PM,21.9,15.1,75,30.32,7.0,NNE,15.0,23.0,N/A,,Overcast,30,2014-02-25 20:52:00
3:52 PM,21.9,14.0,72,30.33,7.0,NE,15.0,-,N/A,,Overcast,40,2014-02-25 21:52:00
4:52 PM,21.0,14.0,74,30.34,8.0,NNE,13.8,18.4,N/A,,Overcast,30,2014-02-25 22:52:00
5:06 PM,21.0,14.0,74,30.30,8.0,NE,11.5,-,N/A,,Overcast,40,2014-02-25 23:06:00
5:52 PM,21.9,12.9,68,30.37,9.0,NNE,10.4,-,N/A,,Overcast,20,2014-02-25 23:52:00
6:27 PM,21.9,12.0,66,30.34,10.0,NNE,11.5,-,N/A,,Overcast,20,2014-02-26 00:27:00
6:52 PM,21.9,12.0,66,30.39,10.0,NNE,9.2,-,N/A,,Overcast,20,2014-02-26 00:52:00
7:52 PM,21.0,6.1,53,30.42,10.0,NNE,19.6,28.8,N/A,,Overcast,30,2014-02-26 01:52:00
8:52 PM,19.9,3.0,48,30.47,10.0,North,15.0,25.3,N/A,,Overcast,10,2014-02-26 02:52:00
9:52 PM,19.0,7.0,59,30.52,10.0,North,16.1,25.3,N/A,,Partly Cloudy,10,2014-02-26 03:52:00
10:52 PM,19.0,8.1,62,30.53,10.0,North,12.7,23.0,N/A,,Overcast,10,2014-02-26 04:52:00
11:52 PM,17.1,9.0,71,30.53,8.0,NNE,16.1,23.0,0.00,Snow,Light Snow,20,2014-02-26 05:52:00